GAOFEN 3 DEB

基本信息
目录编号:
42679
目录名称:
GAOFEN 3 DEB
国际标识:
2016-049D
轨道中心:
EARTH
物体状态:
在轨
发射日期:
2016-08-09 UTC
轨道信息
数据来源: 国际轨道数据
星历时间: 2026-09-14T14:34:39+0800
半长轴: 7114.619km
偏心率: 0.0007978
轨道倾角: 98.320°
近地点辐角: 85.933°
升交点赤经: 267.110°
平近点角: 274.277°
近地点: 730.805km
远地点: 742.159km
周期: 99.538分钟
每日圈数: 14.466894
详细信息
发射场:
TSC
轨道高度:
LEO
数据来源:
AOE Integration Group
参考系:
TEME
时间系统:
UTC
历元类型:
SGP4
2D轨道图
3D轨道图
轨道高度分析图
轨道倾角分析图
轨道综合分析图
查看轨道综合分析图